STARLINK-4170, 53140

Orbit data source: Space-Track

STARLINK-4170, 53140 is a payload satellite owned by SpaceX/Seattle (US) in LEO that was launched on Sun, 17 Jul 2022 UTC via an FALCON 9 launch vehicle from the Air Force Eastern Test Range (AFETR). Payload-class satellites include a variety of spacecraft equipped with specific instruments for various scientific and technological missions. These include communications satellites like Starlink; space stations such as the ISS; scientific satellites like the Hubble; Earth observation satellites from companies like Planet Labs, Umbra, and HawkEye 360; GPS; miniature CubeSats for education and research; and military/defense satellites.

Loading next visibility...
Identifier
53140, 2022-083J
Orbit
LEO
Country
Flag of USUS
Related business
Manufacturer
SpaceX/Seattle
Mission
Operational Commercial Communications
Bus & Motor
STARLINK, Unknown motor
Mass
297 kg wet, ~275 kg dry
Launch date (UTC)
2022-07-17 (4 years ago)
Launch vehicle
FALCON 9
Launch site
Air Force Eastern Test Range (AFETR)
Object type
Payload
Rocket body
Debris
Shape & HBR
Box + 1 Pan, 10.1 m
Radar Cross Section
13.562 m², Large (>1 m²)

Expand to show TLE details & history
Last TLE update: 2 days ago

TLE from 2 days ago
0 STARLINK-4170
1 53140U 22083J   26170.93829497 -.00000384  00000-0 -60465-5 0  9998
2 53140  53.1623  74.9973 0001344  91.2922 268.8224 15.08834066216654
Epoch: 2026-06-19T22:31Z
TLE epoch observation values (Epoch: 2026-06-19T22:31:08.685Z)
Latitude
0.00003°
Longitude
-170.94896°
Altitude
540.672 km
Speed
7.593 km/s
True Right ascension
04h 59m 59s
True Declination
0° 00' 00"
Sunlit
Object was in daylight at epoch
Visualization orbit readout
Latitude
Unknown
Longitude
Unknown
Altitude
Unknown
Speed
Unknown
Apparent Right ascension
Unknown
Apparent Declination
Unknown
Sunlit
N/A
Visualization observer readout
Local Sidereal Time
21:27:13
Azimuth
Unknown
Elevation
Unknown
Doppler factor
Unknown
Orbital elements
Apogee altitude
540.945 km
Perigee altitude
539.085 km
Semi-major axis
6,918.152 km
Eccentricity
0.00013
Inclination
53.1623°
RAAN
74.9973°
Arg. of periapsis
91.2922°
True anomaly
268.807°
Mean anomaly
268.8224°
Eccentric anomaly
268.8147°
Mean motion
3.77188 °/min
Orbital period
95.44 mins
BSTAR
-0.0000060465
Loading maneuver chart data...
Computing Atmospheric mass density...
Loading historical data...
Loading historical data...
Loading historical data...
Loading historical data...
Loading historical data...
Loading historical data...
Loading historical data...

Documentation

Showing up to 5 results
|